Time,TemperatureF,DewpointF,PressureIn,WindDirection,WindDirectionDegrees,WindSpeedMPH,WindSpeedGustMPH,Humidity,HourlyPrecipIn,Conditions,Clouds,dailyrainin,SoftwareType,DateUTC
2013-03-30 00:03:00,43.7,23.8,29.32,SW,227,0.0,0.0,45,0.00,,CLR,0.00,VWS V14.00,2013-03-30 07:03:00,
2013-03-30 00:09:00,43.5,23.6,29.32,SW,227,0.0,0.0,45,0.00,,CLR,0.00,VWS V14.00,2013-03-30 07:09:00,
2013-03-30 00:14:00,43.2,23.8,29.32,SW,227,0.0,0.0,46,0.00,,CLR,0.00,VWS V14.00,2013-03-30 07:14:00,
2013-03-30 00:20:00,43.0,23.6,29.32,SW,227,0.0,0.0,46,0.00,,CLR,0.00,VWS V14.00,2013-03-30 07:20:00,
2013-03-30 00:25:00,42.8,24.0,29.32,SW,227,0.0,0.0,47,0.00,,CLR,0.00,VWS V14.00,2013-03-30 07:25:00,
2013-03-30 00:31:00,42.6,24.3,29.32,SW,227,0.0,0.0,48,0.00,,CLR,0.00,VWS V14.00,2013-03-30 07:31:00,
2013-03-30 00:36:00,42.4,24.1,29.32,SW,227,0.0,0.0,48,0.00,,CLR,0.00,VWS V14.00,2013-03-30 07:36:00,
2013-03-30 00:42:00,42.4,24.1,29.32,SW,227,0.0,0.0,48,0.00,,CLR,0.00,VWS V14.00,2013-03-30 07:42:00,
2013-03-30 00:47:00,42.3,24.5,29.32,SW,227,0.0,0.0,49,0.00,,CLR,0.00,VWS V14.00,2013-03-30 07:47:00,
2013-03-30 00:53:00,42.1,24.3,29.32,SW,227,0.0,0.0,49,0.00,,CLR,0.00,VWS V14.00,2013-03-30 07:53:00,
2013-03-30 00:59:00,41.9,24.1,29.32,SW,227,0.0,0.0,49,0.00,,CLR,0.00,VWS V14.00,2013-03-30 07:59:00,
2013-03-30 01:04:00,41.7,24.0,29.32,SW,227,0.0,0.0,49,0.00,,CLR,0.00,VWS V14.00,2013-03-30 08:04:00,
2013-03-30 01:09:00,41.7,24.5,29.32,SW,227,0.0,0.0,50,0.00,,CLR,0.00,VWS V14.00,2013-03-30 08:09:00,
2013-03-30 01:14:00,41.5,24.3,29.32,SW,227,0.0,0.0,50,0.00,,CLR,0.00,VWS V14.00,2013-03-30 08:14:00,
2013-03-30 01:20:00,41.2,24.0,29.32,SW,227,0.0,0.0,50,0.00,,CLR,0.00,VWS V14.00,2013-03-30 08:20:00,
2013-03-30 01:25:00,41.2,24.0,29.32,SW,227,0.0,0.0,50,0.00,,CLR,0.00,VWS V14.00,2013-03-30 08:25:00,
2013-03-30 01:30:00,41.0,23.8,29.32,SW,227,0.0,0.0,50,0.00,,CLR,0.00,VWS V14.00,2013-03-30 08:30:00,
2013-03-30 01:35:00,40.8,24.1,29.32,SW,227,0.0,0.0,51,0.00,,CLR,0.00,VWS V14.00,2013-03-30 08:35:00,
2013-03-30 01:41:00,40.6,23.9,29.32,SW,227,0.0,0.0,51,0.00,,CLR,0.00,VWS V14.00,2013-03-30 08:41:00,
2013-03-30 01:46:00,40.5,23.8,29.32,SW,227,0.0,0.0,51,0.00,,CLR,0.00,VWS V14.00,2013-03-30 08:46:00,
2013-03-30 01:52:00,40.3,23.6,29.32,SW,227,0.0,0.0,51,0.00,,CLR,0.00,VWS V14.00,2013-03-30 08:52:00,
2013-03-30 01:57:00,40.3,24.1,29.32,SW,227,0.0,0.0,52,0.00,,CLR,0.00,VWS V14.00,2013-03-30 08:57:00,
2013-03-30 02:03:00,40.1,23.9,29.32,SW,227,0.0,0.0,52,0.00,,CLR,0.00,VWS V14.00,2013-03-30 09:03:00,
2013-03-30 02:08:00,40.1,23.9,29.32,SW,227,0.0,0.0,52,0.00,,CLR,0.00,VWS V14.00,2013-03-30 09:08:00,
2013-03-30 02:14:00,39.9,23.7,29.32,SW,227,0.0,0.0,52,0.00,,CLR,0.00,VWS V14.00,2013-03-30 09:14:00,
2013-03-30 02:19:00,39.7,24.0,29.32,SW,227,0.0,0.0,53,0.00,,CLR,0.00,VWS V14.00,2013-03-30 09:19:00,
2013-03-30 02:24:00,39.4,23.7,29.32,SW,227,0.0,0.0,53,0.00,,CLR,0.00,VWS V14.00,2013-03-30 09:24:00,
2013-03-30 02:30:00,39.2,23.5,29.32,SW,227,0.0,0.0,53,0.00,,CLR,0.00,VWS V14.00,2013-03-30 09:30:00,
2013-03-30 02:35:00,39.2,23.5,29.32,SW,227,0.0,0.0,53,0.00,,CLR,0.00,VWS V14.00,2013-03-30 09:35:00,
2013-03-30 02:41:00,38.8,23.6,29.32,SW,227,0.0,0.0,54,0.00,,CLR,0.00,VWS V14.00,2013-03-30 09:41:00,
2013-03-30 02:46:00,38.7,23.5,29.32,SW,227,0.0,0.0,54,0.00,,CLR,0.00,VWS V14.00,2013-03-30 09:46:00,
2013-03-30 02:52:00,38.7,23.5,29.32,SW,227,0.0,0.0,54,0.00,,CLR,0.00,VWS V14.00,2013-03-30 09:52:00,
2013-03-30 02:58:00,38.5,23.3,29.32,SW,227,0.0,0.0,54,0.00,,CLR,0.00,VWS V14.00,2013-03-30 09:58:00,
2013-03-30 03:03:00,38.5,23.7,29.32,SW,227,0.0,0.0,55,0.00,,CLR,0.00,VWS V14.00,2013-03-30 10:03:00,
2013-03-30 03:09:00,38.5,23.7,29.32,SW,227,0.0,0.0,55,0.00,,CLR,0.00,VWS V14.00,2013-03-30 10:09:00,
2013-03-30 03:15:00,38.1,23.4,29.32,SW,227,0.0,0.0,55,0.00,,CLR,0.00,VWS V14.00,2013-03-30 10:15:00,
2013-03-30 03:20:00,38.1,23.4,29.32,SW,227,0.0,0.0,55,0.00,,CLR,0.00,VWS V14.00,2013-03-30 10:20:00,
2013-03-30 03:26:00,37.9,23.2,29.32,SW,227,0.0,0.0,55,0.00,,CLR,0.00,VWS V14.00,2013-03-30 10:26:00,
2013-03-30 03:32:00,37.8,23.1,29.32,SW,227,0.0,0.0,55,0.00,,CLR,0.00,VWS V14.00,2013-03-30 10:32:00,
2013-03-30 03:38:00,37.6,23.3,29.32,SW,227,0.0,0.0,56,0.00,,CLR,0.00,VWS V14.00,2013-03-30 10:38:00,
2013-03-30 03:44:00,37.4,23.1,29.32,SW,227,0.0,0.0,56,0.00,,CLR,0.00,VWS V14.00,2013-03-30 10:44:00,
2013-03-30 03:49:00,37.4,23.1,29.32,SW,227,0.0,0.0,56,0.00,,CLR,0.00,VWS V14.00,2013-03-30 10:49:00,
2013-03-30 03:55:00,37.8,23.9,29.32,SW,227,0.0,0.0,57,0.00,,CLR,0.00,VWS V14.00,2013-03-30 10:55:00,
2013-03-30 04:00:00,38.3,24.4,29.32,SW,227,0.0,0.0,57,0.00,,CLR,0.00,VWS V14.00,2013-03-30 11:00:00,
2013-03-30 04:06:00,39.0,25.5,29.32,SW,227,0.0,0.0,58,0.00,,CLR,0.00,VWS V14.00,2013-03-30 11:06:00,
2013-03-30 04:11:00,39.6,26.0,29.32,SW,227,0.0,0.0,58,0.00,,CLR,0.00,VWS V14.00,2013-03-30 11:11:00,
2013-03-30 04:17:00,39.6,26.0,29.32,SW,227,0.0,0.0,58,0.00,,CLR,0.00,VWS V14.00,2013-03-30 11:17:00,
2013-03-30 04:23:00,39.6,26.0,29.32,SW,227,0.0,0.0,58,0.00,,CLR,0.00,VWS V14.00,2013-03-30 11:23:00,
2013-03-30 04:29:00,39.6,26.0,29.32,SW,227,0.0,0.0,58,0.00,,CLR,0.00,VWS V14.00,2013-03-30 11:29:00,
2013-03-30 04:34:00,39.4,25.9,29.32,SW,227,0.0,0.0,58,0.00,,CLR,0.00,VWS V14.00,2013-03-30 11:34:00,
2013-03-30 04:40:00,39.4,26.3,29.32,SW,227,0.0,0.0,59,0.00,,CLR,0.00,VWS V14.00,2013-03-30 11:40:00,
2013-03-30 04:45:00,39.2,26.1,29.32,SW,227,0.0,0.0,59,0.00,,CLR,0.00,VWS V14.00,2013-03-30 11:45:00,
2013-03-30 04:52:00,39.0,26.3,29.32,SW,227,0.0,0.0,60,0.00,,CLR,0.00,VWS V14.00,2013-03-30 11:52:00,
2013-03-30 04:58:00,38.7,26.0,29.32,SW,227,0.0,0.0,60,0.00,,CLR,0.00,VWS V14.00,2013-03-30 11:58:00,
2013-03-30 05:04:00,38.5,25.8,29.32,SW,227,0.0,0.0,60,0.00,,CLR,0.00,VWS V14.00,2013-03-30 12:04:00,
2013-03-30 05:09:00,38.3,25.6,29.32,SW,227,0.0,0.0,60,0.00,,CLR,0.00,VWS V14.00,2013-03-30 12:09:00,
2013-03-30 05:15:00,37.9,25.3,29.32,SW,227,0.0,0.0,60,0.00,,CLR,0.00,VWS V14.00,2013-03-30 12:15:00,
2013-03-30 05:20:00,37.8,25.1,29.32,SW,227,0.0,0.0,60,0.00,,CLR,0.00,VWS V14.00,2013-03-30 12:20:00,
2013-03-30 05:26:00,37.4,24.8,29.32,SW,227,0.0,0.0,60,0.00,,CLR,0.00,VWS V14.00,2013-03-30 12:26:00,
2013-03-30 05:32:00,37.0,24.9,29.32,SW,227,0.0,0.0,61,0.00,,CLR,0.00,VWS V14.00,2013-03-30 12:32:00,
2013-03-30 05:37:00,36.9,24.7,29.32,SW,227,0.0,0.0,61,0.00,,CLR,0.00,VWS V14.00,2013-03-30 12:37:00,
2013-03-30 05:43:00,36.7,24.5,29.32,SW,227,0.0,0.0,61,0.00,,CLR,0.00,VWS V14.00,2013-03-30 12:43:00,
2013-03-30 05:48:00,36.5,24.3,29.32,SW,227,0.0,0.0,61,0.00,,CLR,0.00,VWS V14.00,2013-03-30 12:48:00,
2013-03-30 05:54:00,36.3,24.2,29.32,SW,227,0.0,0.0,61,0.00,,CLR,0.00,VWS V14.00,2013-03-30 12:54:00,
2013-03-30 06:00:00,36.1,24.0,29.32,SW,227,0.0,0.0,61,0.00,,CLR,0.00,VWS V14.00,2013-03-30 13:00:00,
2013-03-30 06:05:00,36.0,23.8,29.32,SW,227,0.0,0.0,61,0.00,,CLR,0.00,VWS V14.00,2013-03-30 13:05:00,
2013-03-30 06:11:00,36.1,24.4,29.32,SW,227,0.0,0.0,62,0.00,,CLR,0.00,VWS V14.00,2013-03-30 13:11:00,
2013-03-30 06:16:00,36.3,24.6,29.32,SW,227,0.0,0.0,62,0.00,,CLR,0.00,VWS V14.00,2013-03-30 13:16:00,
2013-03-30 06:22:00,36.5,24.7,29.32,SW,227,0.0,0.0,62,0.00,,CLR,0.00,VWS V14.00,2013-03-30 13:22:00,
2013-03-30 06:28:00,36.7,25.3,29.32,SW,227,0.0,0.0,63,0.00,,CLR,0.00,VWS V14.00,2013-03-30 13:28:00,
2013-03-30 06:33:00,36.7,24.9,29.32,SW,227,0.0,0.0,62,0.00,,CLR,0.00,VWS V14.00,2013-03-30 13:33:00,
2013-03-30 06:39:00,36.7,24.9,29.32,SW,227,0.0,0.0,62,0.00,,CLR,0.00,VWS V14.00,2013-03-30 13:39:00,
2013-03-30 06:44:00,36.5,25.1,29.32,SW,227,0.0,0.0,63,0.00,,CLR,0.00,VWS V14.00,2013-03-30 13:44:00,
2013-03-30 06:50:00,36.3,25.0,29.32,SW,227,0.0,0.0,63,0.00,,CLR,0.00,VWS V14.00,2013-03-30 13:50:00,
2013-03-30 06:55:00,36.1,24.8,29.32,SW,227,0.0,0.0,63,0.00,,CLR,0.00,VWS V14.00,2013-03-30 13:55:00,
2013-03-30 07:01:00,36.0,24.6,29.32,SW,227,0.0,0.0,63,0.00,,CLR,0.00,VWS V14.00,2013-03-30 14:01:00,
2013-03-30 07:07:00,35.8,24.4,29.32,SW,227,0.0,0.0,63,0.00,,CLR,0.00,VWS V14.00,2013-03-30 14:07:00,
2013-03-30 07:12:00,35.8,24.4,29.32,SW,227,0.0,0.0,63,0.00,,CLR,0.00,VWS V14.00,2013-03-30 14:12:00,
2013-03-30 07:18:00,35.8,24.4,29.32,SW,227,0.0,0.0,63,0.00,,CLR,0.00,VWS V14.00,2013-03-30 14:18:00,
2013-03-30 07:23:00,35.8,24.8,29.32,SW,227,0.0,0.0,64,0.00,,CLR,0.00,VWS V14.00,2013-03-30 14:23:00,
2013-03-30 07:29:00,35.8,24.8,29.32,SW,227,0.0,0.0,64,0.00,,CLR,0.00,VWS V14.00,2013-03-30 14:29:00,
2013-03-30 07:35:00,35.8,24.8,29.32,SW,227,0.0,0.0,64,0.00,,CLR,0.00,VWS V14.00,2013-03-30 14:35:00,
2013-03-30 07:40:00,35.8,24.8,29.32,SW,227,0.0,0.0,64,0.00,,CLR,0.00,VWS V14.00,2013-03-30 14:40:00,
2013-03-30 07:46:00,35.8,24.8,29.32,SW,227,0.0,0.0,64,0.00,,CLR,0.00,VWS V14.00,2013-03-30 14:46:00,
2013-03-30 07:52:00,36.1,25.5,29.32,SW,227,0.0,0.0,65,0.00,,CLR,0.00,VWS V14.00,2013-03-30 14:52:00,
2013-03-30 07:58:00,36.5,25.9,29.32,SW,227,0.0,0.0,65,0.00,,CLR,0.00,VWS V14.00,2013-03-30 14:58:00,
2013-03-30 08:04:00,37.0,26.4,29.32,SW,227,0.0,0.0,65,0.00,,CLR,0.00,VWS V14.00,2013-03-30 15:04:00,
2013-03-30 08:09:00,37.8,27.4,29.32,SW,227,0.0,0.0,66,0.00,,CLR,0.00,VWS V14.00,2013-03-30 15:09:00,
2013-03-30 08:14:00,38.5,28.1,29.32,SW,227,0.0,0.0,66,0.00,,CLR,0.00,VWS V14.00,2013-03-30 15:14:00,
2013-03-30 08:19:00,39.2,28.8,29.32,SW,227,0.0,0.0,66,0.00,,CLR,0.00,VWS V14.00,2013-03-30 15:19:00,
2013-03-30 08:25:00,39.9,29.5,29.32,SW,227,0.0,0.0,66,0.00,,CLR,0.00,VWS V14.00,2013-03-30 15:25:00,
2013-03-30 08:31:00,40.6,30.5,29.32,SW,227,0.0,0.0,67,0.00,,CLR,0.00,VWS V14.00,2013-03-30 15:31:00,
2013-03-30 08:36:00,41.0,30.9,29.32,SW,227,0.0,0.0,67,0.00,,CLR,0.00,VWS V14.00,2013-03-30 15:36:00,
2013-03-30 08:41:00,41.5,31.4,29.32,SW,227,0.0,0.0,67,0.00,,CLR,0.00,VWS V14.00,2013-03-30 15:41:00,
2013-03-30 08:47:00,42.3,32.1,29.32,SW,227,0.0,0.0,67,0.00,,CLR,0.00,VWS V14.00,2013-03-30 15:47:00,
2013-03-30 08:53:00,42.8,32.6,29.32,SW,227,0.0,0.0,67,0.00,,CLR,0.00,VWS V14.00,2013-03-30 15:53:00,
2013-03-30 08:59:00,43.2,33.0,29.32,SW,227,0.0,0.0,67,0.00,,CLR,0.00,VWS V14.00,2013-03-30 15:59:00,
2013-03-30 09:04:00,43.5,33.3,29.32,SW,227,0.0,0.0,67,0.00,,CLR,0.00,VWS V14.00,2013-03-30 16:04:00,
2013-03-30 09:10:00,44.1,34.2,29.32,NNW,330,0.0,0.0,68,0.00,,CLR,0.00,VWS V14.00,2013-03-30 16:10:00,
2013-03-30 09:15:00,44.6,34.3,29.32,SW,222,0.0,0.0,67,0.00,,CLR,0.00,VWS V14.00,2013-03-30 16:15:00,
2013-03-30 09:21:00,45.0,34.7,29.32,SW,224,0.0,0.0,67,0.00,,CLR,0.00,VWS V14.00,2013-03-30 16:21:00,
2013-03-30 09:27:00,45.5,35.6,29.32,NNW,330,0.0,0.0,68,0.00,,CLR,0.00,VWS V14.00,2013-03-30 16:27:00,
2013-03-30 09:32:00,46.0,36.1,29.32,SW,235,0.0,0.0,68,0.00,,CLR,0.00,VWS V14.00,2013-03-30 16:32:00,
2013-03-30 09:38:00,47.1,37.1,29.32,WSW,248,2.7,2.7,68,0.00,,CLR,0.00,VWS V14.00,2013-03-30 16:38:00,
2013-03-30 09:44:00,48.2,38.5,29.32,North,357,4.0,4.0,69,0.00,,CLR,0.00,VWS V14.00,2013-03-30 16:44:00,
2013-03-30 09:49:00,49.1,39.4,29.32,SSW,200,3.6,3.6,69,0.00,,CLR,0.00,VWS V14.00,2013-03-30 16:49:00,
2013-03-30 09:55:00,50.4,40.2,29.32,NNW,332,2.2,3.6,68,0.00,,CLR,0.00,VWS V14.00,2013-03-30 16:55:00,
2013-03-30 10:00:00,51.3,40.7,29.32,SW,218,3.1,5.8,67,0.00,,CLR,0.00,VWS V14.00,2013-03-30 17:00:00,
2013-03-30 10:06:00,52.2,38.7,29.32,NW,306,3.1,4.0,60,0.00,,CLR,0.00,VWS V14.00,2013-03-30 17:06:00,
2013-03-30 10:13:00,53.2,36.1,29.32,NNW,338,3.1,3.1,52,0.00,,CLR,0.00,VWS V14.00,2013-03-30 17:13:00,
2013-03-30 10:19:00,54.1,34.4,29.32,NNW,334,3.1,3.1,47,0.00,,CLR,0.00,VWS V14.00,2013-03-30 17:19:00,
2013-03-30 10:24:00,54.9,30.4,29.32,West,265,4.9,5.8,39,0.00,,CLR,0.00,VWS V14.00,2013-03-30 17:24:00,
2013-03-30 10:30:00,55.6,29.1,29.32,North,357,0.0,3.6,36,0.00,,CLR,0.00,VWS V14.00,2013-03-30 17:30:00,
2013-03-30 10:35:00,56.3,29.0,29.32,WSW,241,2.7,3.6,35,0.00,,CLR,0.00,VWS V14.00,2013-03-30 17:35:00,
2013-03-30 10:42:00,56.7,27.2,29.32,NNW,346,3.6,5.4,32,0.00,,CLR,0.00,VWS V14.00,2013-03-30 17:42:00,
2013-03-30 10:48:00,57.0,25.9,29.32,SSW,195,2.7,5.4,30,0.00,,CLR,0.00,VWS V14.00,2013-03-30 17:48:00,
2013-03-30 10:53:00,57.4,24.6,29.32,WNW,297,8.7,8.7,28,0.00,,CLR,0.00,VWS V14.00,2013-03-30 17:53:00,
2013-03-30 10:59:00,57.6,23.9,29.32,NW,305,3.1,5.4,27,0.00,,CLR,0.00,VWS V14.00,2013-03-30 17:59:00,
2013-03-30 11:05:00,57.9,23.3,29.32,West,281,4.9,6.3,26,0.00,,CLR,0.00,VWS V14.00,2013-03-30 18:05:00,
2013-03-30 11:10:00,58.3,23.6,29.32,NW,312,4.0,5.4,26,0.00,,CLR,0.00,VWS V14.00,2013-03-30 18:10:00,
2013-03-30 11:16:00,58.6,23.9,29.32,WSW,257,5.8,5.8,26,0.00,,CLR,0.00,VWS V14.00,2013-03-30 18:16:00,
2013-03-30 11:21:00,59.2,24.3,29.32,WSW,248,4.0,4.0,26,0.00,,CLR,0.00,VWS V14.00,2013-03-30 18:21:00,
2013-03-30 11:27:00,59.9,25.0,29.32,WNW,286,2.7,3.6,26,0.00,,CLR,0.00,VWS V14.00,2013-03-30 18:27:00,
2013-03-30 11:32:00,60.4,24.5,29.32,West,266,3.6,5.4,25,0.00,,CLR,0.00,VWS V14.00,2013-03-30 18:32:00,
2013-03-30 11:37:00,60.8,24.8,29.32,NNW,348,2.2,5.8,25,0.00,,CLR,0.00,VWS V14.00,2013-03-30 18:37:00,
2013-03-30 11:43:00,61.5,25.4,29.32,NNW,331,4.0,4.0,25,0.00,,CLR,0.00,VWS V14.00,2013-03-30 18:43:00,
2013-03-30 11:48:00,62.1,25.9,29.32,NW,311,3.1,4.0,25,0.00,,CLR,0.00,VWS V14.00,2013-03-30 18:48:00,
2013-03-30 11:54:00,62.2,26.0,29.32,NNW,334,3.6,4.9,25,0.00,,CLR,0.00,VWS V14.00,2013-03-30 18:54:00,
2013-03-30 11:59:00,62.1,25.9,29.32,NW,318,7.6,7.6,25,0.00,,CLR,0.00,VWS V14.00,2013-03-30 18:59:00,
2013-03-30 12:05:00,62.1,24.9,29.32,North,4,4.9,4.9,24,0.00,,CLR,0.00,VWS V14.00,2013-03-30 19:05:00,
2013-03-30 12:11:00,62.2,25.0,29.32,NNW,334,5.8,6.3,24,0.00,,CLR,0.00,VWS V14.00,2013-03-30 19:11:00,
2013-03-30 12:17:00,63.1,25.8,29.32,North,357,3.6,5.4,24,0.00,,CLR,0.00,VWS V14.00,2013-03-30 19:17:00,
2013-03-30 12:23:00,63.9,26.4,29.32,WSW,252,2.2,6.3,24,0.00,,CLR,0.00,VWS V14.00,2013-03-30 19:23:00,
2013-03-30 12:28:00,64.0,26.5,29.32,SW,232,3.6,4.9,24,0.00,,CLR,0.00,VWS V14.00,2013-03-30 19:28:00,
2013-03-30 12:33:00,64.2,26.7,29.32,North,357,0.0,6.3,24,0.00,,CLR,0.00,VWS V14.00,2013-03-30 19:33:00,
2013-03-30 12:39:00,64.6,26.0,29.32,NNW,342,3.1,4.0,23,0.00,,CLR,0.00,VWS V14.00,2013-03-30 19:39:00,
2013-03-30 12:44:00,64.6,26.0,29.32,NW,320,4.0,5.4,23,0.00,,CLR,0.00,VWS V14.00,2013-03-30 19:44:00,
2013-03-30 12:50:00,65.3,26.6,29.32,North,353,3.6,3.6,23,0.00,,CLR,0.00,VWS V14.00,2013-03-30 19:50:00,
2013-03-30 12:55:00,65.7,26.9,29.32,WNW,303,6.3,6.3,23,0.00,,CLR,0.00,VWS V14.00,2013-03-30 19:55:00,
2013-03-30 13:00:00,65.7,26.9,29.32,South,173,3.1,3.6,23,0.00,,CLR,0.00,VWS V14.00,2013-03-30 20:00:00,
2013-03-30 13:06:00,65.8,27.0,29.32,North,349,7.2,7.2,23,0.00,,CLR,0.00,VWS V14.00,2013-03-30 20:06:00,
2013-03-30 13:11:00,65.8,27.0,29.32,North,10,3.6,5.8,23,0.00,,CLR,0.00,VWS V14.00,2013-03-30 20:11:00,
2013-03-30 13:17:00,66.0,23.8,29.32,North,353,2.7,6.3,20,0.00,,CLR,0.00,VWS V14.00,2013-03-30 20:17:00,
2013-03-30 13:23:00,66.4,24.1,29.32,NNE,12,2.7,5.4,20,0.00,,CLR,0.00,VWS V14.00,2013-03-30 20:23:00,
2013-03-30 13:28:00,66.7,24.4,29.32,NE,48,0.0,5.4,20,0.00,,CLR,0.00,VWS V14.00,2013-03-30 20:28:00,
2013-03-30 13:34:00,67.5,25.0,29.32,West,273,3.1,6.3,20,0.00,,CLR,0.00,VWS V14.00,2013-03-30 20:34:00,
2013-03-30 13:39:00,67.6,25.2,29.32,North,0,4.0,5.4,20,0.00,,CLR,0.00,VWS V14.00,2013-03-30 20:39:00,
2013-03-30 13:44:00,67.8,25.3,29.32,WNW,292,3.1,4.0,20,0.00,,CLR,0.00,VWS V14.00,2013-03-30 20:44:00,
2013-03-30 13:49:00,67.8,25.3,29.32,North,357,3.1,5.8,20,0.00,,CLR,0.00,VWS V14.00,2013-03-30 20:49:00,
2013-03-30 13:55:00,67.8,25.3,29.32,NW,316,3.6,4.0,20,0.00,,CLR,0.00,VWS V14.00,2013-03-30 20:55:00,
2013-03-30 14:00:00,68.4,25.8,29.32,West,262,3.1,3.6,20,0.00,,CLR,0.00,VWS V14.00,2013-03-30 21:00:00,
2013-03-30 14:05:00,68.9,26.2,29.32,NW,325,0.0,3.6,20,0.00,,CLR,0.00,VWS V14.00,2013-03-30 21:05:00,
2013-03-30 14:10:00,68.9,26.2,29.32,WNW,291,5.8,6.3,20,0.00,,CLR,0.00,VWS V14.00,2013-03-30 21:10:00,
2013-03-30 14:16:00,68.9,26.2,29.32,WNW,298,4.0,5.4,20,0.00,,CLR,0.00,VWS V14.00,2013-03-30 21:16:00,
2013-03-30 14:21:00,68.9,26.2,29.32,NNW,338,5.8,5.8,20,0.00,,CLR,0.00,VWS V14.00,2013-03-30 21:21:00,
2013-03-30 14:26:00,69.1,26.4,29.32,NW,304,6.3,6.3,20,0.00,,CLR,0.00,VWS V14.00,2013-03-30 21:26:00,
2013-03-30 14:31:00,69.3,26.5,29.32,NNW,330,3.1,4.9,20,0.00,,CLR,0.00,VWS V14.00,2013-03-30 21:31:00,
2013-03-30 14:37:00,69.4,26.7,29.32,NNW,328,2.7,4.0,20,0.00,,CLR,0.00,VWS V14.00,2013-03-30 21:37:00,
2013-03-30 14:42:00,69.8,25.7,29.32,NW,318,2.7,4.0,19,0.00,,CLR,0.00,VWS V14.00,2013-03-30 21:42:00,
2013-03-30 14:48:00,70.0,25.9,29.32,North,353,0.0,2.7,19,0.00,,CLR,0.00,VWS V14.00,2013-03-30 21:48:00,
2013-03-30 14:54:00,70.0,25.9,29.32,WNW,299,3.6,7.6,19,0.00,,CLR,0.00,VWS V14.00,2013-03-30 21:54:00,
2013-03-30 15:00:00,70.0,25.9,29.32,NW,326,6.3,6.3,19,0.00,,CLR,0.00,VWS V14.00,2013-03-30 22:00:00,
2013-03-30 15:05:00,69.8,25.7,29.32,WSW,238,3.6,6.3,19,0.00,,CLR,0.00,VWS V14.00,2013-03-30 22:05:00,
2013-03-30 15:10:00,69.6,26.8,29.32,NE,47,3.1,4.9,20,0.00,,CLR,0.00,VWS V14.00,2013-03-30 22:10:00,
2013-03-30 15:16:00,70.0,25.9,29.32,NNW,338,2.7,3.6,19,0.00,,CLR,0.00,VWS V14.00,2013-03-30 22:16:00,
2013-03-30 15:22:00,70.2,26.0,29.32,NNW,337,2.7,2.7,19,0.00,,CLR,0.00,VWS V14.00,2013-03-30 22:22:00,
2013-03-30 15:27:00,70.5,26.3,29.32,NW,317,2.7,3.1,19,0.00,,CLR,0.00,VWS V14.00,2013-03-30 22:27:00,
2013-03-30 15:33:00,70.5,26.3,29.32,NW,326,5.4,6.3,19,0.00,,CLR,0.00,VWS V14.00,2013-03-30 22:33:00,
2013-03-30 15:38:00,70.2,26.0,29.32,NNW,328,3.6,5.4,19,0.00,,CLR,0.00,VWS V14.00,2013-03-30 22:38:00,
2013-03-30 15:44:00,70.0,25.9,29.32,NNW,345,2.7,3.1,19,0.00,,CLR,0.00,VWS V14.00,2013-03-30 22:44:00,
2013-03-30 15:50:00,70.0,25.9,29.32,North,350,4.9,5.8,19,0.00,,CLR,0.00,VWS V14.00,2013-03-30 22:50:00,
2013-03-30 15:55:00,70.2,26.0,29.32,WNW,292,3.6,4.9,19,0.00,,CLR,0.00,VWS V14.00,2013-03-30 22:55:00,
2013-03-30 16:01:00,70.2,26.0,29.32,NW,321,2.2,5.8,19,0.00,,CLR,0.00,VWS V14.00,2013-03-30 23:01:00,
2013-03-30 16:07:00,69.8,25.7,29.32,North,353,3.1,4.9,19,0.00,,CLR,0.00,VWS V14.00,2013-03-30 23:07:00,
2013-03-30 16:12:00,69.4,26.7,29.32,North,10,5.4,6.3,20,0.00,,CLR,0.00,VWS V14.00,2013-03-30 23:12:00,
2013-03-30 16:17:00,69.3,26.5,29.32,NW,314,3.6,3.6,20,0.00,,CLR,0.00,VWS V14.00,2013-03-30 23:17:00,
2013-03-30 16:23:00,69.4,26.7,29.32,NNW,343,5.4,5.8,20,0.00,,CLR,0.00,VWS V14.00,2013-03-30 23:23:00,
2013-03-30 16:29:00,69.6,26.8,29.32,NW,321,3.1,3.6,20,0.00,,CLR,0.00,VWS V14.00,2013-03-30 23:29:00,
2013-03-30 16:34:00,69.6,26.8,29.32,NW,309,6.3,6.3,20,0.00,,CLR,0.00,VWS V14.00,2013-03-30 23:34:00,
2013-03-30 16:40:00,69.6,26.8,29.32,SSW,208,2.2,3.1,20,0.00,,CLR,0.00,VWS V14.00,2013-03-30 23:40:00,
2013-03-30 16:47:00,69.8,25.7,29.32,North,353,5.4,5.4,19,0.00,,CLR,0.00,VWS V14.00,2013-03-30 23:47:00,
2013-03-30 16:52:00,69.4,26.7,29.32,SW,223,4.0,4.0,20,0.00,,CLR,0.00,VWS V14.00,2013-03-30 23:52:00,
2013-03-30 16:58:00,69.1,26.4,29.32,SSW,200,2.7,3.1,20,0.00,,CLR,0.00,VWS V14.00,2013-03-30 23:58:00,
2013-03-30 17:04:00,68.9,26.2,29.32,North,353,3.6,5.8,20,0.00,,CLR,0.00,VWS V14.00,2013-03-31 00:04:00,
2013-03-30 17:09:00,68.7,26.1,29.32,NNW,345,5.4,5.8,20,0.00,,CLR,0.00,VWS V14.00,2013-03-31 00:09:00,
2013-03-30 17:15:00,68.4,25.8,29.32,NNW,337,5.4,7.6,20,0.00,,CLR,0.00,VWS V14.00,2013-03-31 00:15:00,
2013-03-30 17:21:00,68.0,25.5,29.32,NW,326,2.7,3.6,20,0.00,,CLR,0.00,VWS V14.00,2013-03-31 00:21:00,
2013-03-30 17:27:00,67.8,25.3,29.32,NNE,33,3.1,5.4,20,0.00,,CLR,0.00,VWS V14.00,2013-03-31 00:27:00,
2013-03-30 17:33:00,67.6,25.2,29.32,NW,313,3.6,6.3,20,0.00,,CLR,0.00,VWS V14.00,2013-03-31 00:33:00,
2013-03-30 17:39:00,67.3,24.9,29.32,NNW,334,5.8,8.3,20,0.00,,CLR,0.00,VWS V14.00,2013-03-31 00:39:00,
2013-03-30 17:44:00,66.9,24.6,29.32,NW,311,6.3,6.3,20,0.00,,CLR,0.00,VWS V14.00,2013-03-31 00:44:00,
2013-03-30 17:50:00,66.7,24.4,29.32,ENE,70,2.7,4.9,20,0.00,,CLR,0.00,VWS V14.00,2013-03-31 00:50:00,
2013-03-30 17:56:00,66.6,24.3,29.32,WNW,300,3.6,4.5,20,0.00,,CLR,0.00,VWS V14.00,2013-03-31 00:56:00,
2013-03-30 18:01:00,66.6,24.3,29.32,NW,307,2.7,3.6,20,0.00,,CLR,0.00,VWS V14.00,2013-03-31 01:01:00,
2013-03-30 18:07:00,66.4,24.1,29.32,NW,308,3.6,5.8,20,0.00,,CLR,0.00,VWS V14.00,2013-03-31 01:07:00,
2013-03-30 18:12:00,66.2,24.0,29.32,NW,315,3.1,4.0,20,0.00,,CLR,0.00,VWS V14.00,2013-03-31 01:12:00,
2013-03-30 18:18:00,66.0,23.8,29.32,WNW,294,5.4,5.4,20,0.00,,CLR,0.00,VWS V14.00,2013-03-31 01:18:00,
2013-03-30 18:24:00,65.8,23.7,29.32,NW,309,0.0,2.7,20,0.00,,CLR,0.00,VWS V14.00,2013-03-31 01:24:00,
2013-03-30 18:30:00,65.5,23.4,29.32,NW,324,3.6,3.6,20,0.00,,CLR,0.00,VWS V14.00,2013-03-31 01:30:00,
2013-03-30 18:35:00,65.1,23.1,29.32,WNW,290,2.7,3.6,20,0.00,,CLR,0.00,VWS V14.00,2013-03-31 01:35:00,
2013-03-30 18:40:00,64.8,22.8,29.32,WNW,282,2.2,3.1,20,0.00,,CLR,0.00,VWS V14.00,2013-03-31 01:40:00,
2013-03-30 18:45:00,64.4,22.5,29.32,NW,312,2.7,3.6,20,0.00,,CLR,0.00,VWS V14.00,2013-03-31 01:45:00,
2013-03-30 18:51:00,64.0,25.5,29.32,North,0,4.0,4.0,23,0.00,,CLR,0.00,VWS V14.00,2013-03-31 01:51:00,
2013-03-30 18:57:00,63.3,24.9,29.32,NNW,343,6.3,6.3,23,0.00,,CLR,0.00,VWS V14.00,2013-03-31 01:57:00,
2013-03-30 19:03:00,62.8,24.5,29.32,NNW,331,3.1,5.8,23,0.00,,CLR,0.00,VWS V14.00,2013-03-31 02:03:00,
2013-03-30 19:08:00,62.2,25.0,29.32,NNW,330,3.1,4.0,24,0.00,,CLR,0.00,VWS V14.00,2013-03-31 02:08:00,
2013-03-30 19:13:00,61.7,24.6,29.32,WNW,292,2.2,2.7,24,0.00,,CLR,0.00,VWS V14.00,2013-03-31 02:13:00,
2013-03-30 19:19:00,61.2,24.1,29.32,NW,305,0.0,4.0,24,0.00,,CLR,0.00,VWS V14.00,2013-03-31 02:19:00,
2013-03-30 19:24:00,60.6,23.6,29.32,North,350,4.0,4.0,24,0.00,,CLR,0.00,VWS V14.00,2013-03-31 02:24:00,
2013-03-30 19:29:00,60.1,24.2,29.32,WNW,289,0.0,0.0,25,0.00,,CLR,0.00,VWS V14.00,2013-03-31 02:29:00,
2013-03-30 19:35:00,59.7,23.9,29.32,WNW,283,2.2,4.0,25,0.00,,CLR,0.00,VWS V14.00,2013-03-31 02:35:00,
2013-03-30 19:41:00,59.2,23.4,29.32,West,279,0.0,0.0,25,0.00,,CLR,0.00,VWS V14.00,2013-03-31 02:41:00,
2013-03-30 19:47:00,58.6,23.9,29.32,NW,307,0.0,2.7,26,0.00,,CLR,0.00,VWS V14.00,2013-03-31 02:47:00,
2013-03-30 19:52:00,58.3,23.6,29.32,WNW,303,2.2,3.1,26,0.00,,CLR,0.00,VWS V14.00,2013-03-31 02:52:00,
2013-03-30 19:57:00,57.9,23.3,29.32,NNW,327,4.9,4.9,26,0.00,,CLR,0.00,VWS V14.00,2013-03-31 02:57:00,
2013-03-30 20:03:00,57.6,23.0,29.32,West,271,4.9,4.9,26,0.00,,CLR,0.00,VWS V14.00,2013-03-31 03:03:00,
2013-03-30 20:09:00,57.2,22.6,29.32,SW,231,2.7,2.7,26,0.00,,CLR,0.00,VWS V14.00,2013-03-31 03:09:00,
2013-03-30 20:15:00,56.8,23.2,29.32,NNW,327,0.0,2.2,27,0.00,,CLR,0.00,VWS V14.00,2013-03-31 03:15:00,
2013-03-30 20:20:00,56.7,23.1,29.32,NW,305,3.1,4.0,27,0.00,,CLR,0.00,VWS V14.00,2013-03-31 03:20:00,
2013-03-30 20:25:00,56.3,23.6,29.32,NW,313,0.0,3.6,28,0.00,,CLR,0.00,VWS V14.00,2013-03-31 03:25:00,
2013-03-30 20:31:00,56.3,23.6,29.32,NNW,327,2.2,4.0,28,0.00,,CLR,0.00,VWS V14.00,2013-03-31 03:31:00,
2013-03-30 20:37:00,55.9,24.2,29.32,NW,311,0.0,2.7,29,0.00,,CLR,0.00,VWS V14.00,2013-03-31 03:37:00,
2013-03-30 20:43:00,55.8,24.0,29.32,NW,324,0.0,0.0,29,0.00,,CLR,0.00,VWS V14.00,2013-03-31 03:43:00,
2013-03-30 20:49:00,55.2,24.4,29.32,NW,320,3.1,3.6,30,0.00,,CLR,0.00,VWS V14.00,2013-03-31 03:49:00,
2013-03-30 20:55:00,55.0,25.0,29.32,NW,324,2.2,2.2,31,0.00,,CLR,0.00,VWS V14.00,2013-03-31 03:55:00,
2013-03-30 21:00:00,54.7,24.7,29.32,NW,308,0.0,3.6,31,0.00,,CLR,0.00,VWS V14.00,2013-03-31 04:00:00,
2013-03-30 21:02:00,54.7,24.7,29.32,NW,314,0.0,2.7,31,0.00,,CLR,0.00,VWS V14.00,2013-03-31 04:02:00,
2013-03-30 21:04:00,54.7,25.4,29.32,NW,324,0.0,3.6,32,0.00,,CLR,0.00,VWS V14.00,2013-03-31 04:04:00,
2013-03-30 21:05:00,54.7,25.4,29.32,West,275,0.0,5.8,32,0.00,,CLR,0.00,VWS V14.00,2013-03-31 04:05:00,
2013-03-30 21:11:00,54.7,25.4,29.32,WNW,285,5.4,6.3,32,0.00,,CLR,0.00,VWS V14.00,2013-03-31 04:11:00,
2013-03-30 21:16:00,54.5,26.0,29.32,NNW,340,0.0,2.2,33,0.00,,CLR,0.00,VWS V14.00,2013-03-31 04:16:00,
2013-03-30 21:21:00,54.5,26.0,29.32,NW,309,0.0,0.0,33,0.00,,CLR,0.00,VWS V14.00,2013-03-31 04:21:00,
2013-03-30 21:27:00,54.3,25.9,29.32,NW,309,0.0,0.0,33,0.00,,CLR,0.00,VWS V14.00,2013-03-31 04:27:00,
2013-03-30 21:33:00,53.8,25.4,29.32,NW,309,0.0,0.0,33,0.00,,CLR,0.00,VWS V14.00,2013-03-31 04:33:00,
2013-03-30 21:39:00,53.2,25.6,29.32,SW,225,0.0,0.0,34,0.00,,CLR,0.00,VWS V14.00,2013-03-31 04:39:00,
2013-03-30 21:44:00,52.9,26.0,29.32,NNW,330,0.0,3.6,35,0.00,,CLR,0.00,VWS V14.00,2013-03-31 04:44:00,
2013-03-30 21:49:00,52.5,26.4,29.32,NNW,330,0.0,0.0,36,0.00,,CLR,0.00,VWS V14.00,2013-03-31 04:49:00,
2013-03-30 21:55:00,52.2,26.0,29.32,NNW,330,0.0,0.0,36,0.00,,CLR,0.00,VWS V14.00,2013-03-31 04:55:00,
2013-03-30 22:01:00,51.8,25.7,29.32,NNW,330,0.0,0.0,36,0.00,,CLR,0.00,VWS V14.00,2013-03-31 05:01:00,
2013-03-30 22:06:00,51.6,26.2,29.32,NNW,330,0.0,0.0,37,0.00,,CLR,0.00,VWS V14.00,2013-03-31 05:06:00,
2013-03-30 22:12:00,51.3,25.9,29.32,North,353,0.0,0.0,37,0.00,,CLR,0.00,VWS V14.00,2013-03-31 05:12:00,
2013-03-30 22:17:00,50.9,25.6,29.32,North,353,0.0,0.0,37,0.00,,CLR,0.00,VWS V14.00,2013-03-31 05:17:00,
2013-03-30 22:23:00,50.7,25.4,29.32,North,353,0.0,0.0,37,0.00,,CLR,0.00,VWS V14.00,2013-03-31 05:23:00,
2013-03-30 22:29:00,50.4,25.1,29.32,North,353,0.0,0.0,37,0.00,,CLR,0.00,VWS V14.00,2013-03-31 05:29:00,
2013-03-30 22:34:00,50.0,25.4,29.32,North,353,0.0,0.0,38,0.00,,CLR,0.00,VWS V14.00,2013-03-31 05:34:00,
2013-03-30 22:39:00,50.2,25.6,29.32,NNW,333,3.1,3.1,38,0.00,,CLR,0.00,VWS V14.00,2013-03-31 05:39:00,
2013-03-30 22:45:00,50.4,25.7,29.32,NNW,333,0.0,0.0,38,0.00,,CLR,0.00,VWS V14.00,2013-03-31 05:45:00,
2013-03-30 22:50:00,50.7,26.0,29.32,West,280,0.0,0.0,38,0.00,,CLR,0.00,VWS V14.00,2013-03-31 05:50:00,
2013-03-30 22:56:00,50.7,26.0,29.32,West,280,0.0,0.0,38,0.00,,CLR,0.00,VWS V14.00,2013-03-31 05:56:00,
2013-03-30 23:01:00,50.7,26.0,29.32,NW,310,0.0,0.0,38,0.00,,CLR,0.00,VWS V14.00,2013-03-31 06:01:00,
2013-03-30 23:06:00,50.5,25.9,29.32,NW,310,0.0,0.0,38,0.00,,CLR,0.00,VWS V14.00,2013-03-31 06:06:00,
2013-03-30 23:12:00,50.5,25.9,29.32,NW,310,0.0,0.0,38,0.00,,CLR,0.00,VWS V14.00,2013-03-31 06:12:00,
2013-03-30 23:18:00,50.4,25.7,29.32,NW,310,0.0,0.0,38,0.00,,CLR,0.00,VWS V14.00,2013-03-31 06:18:00,
2013-03-30 23:24:00,50.2,25.6,29.32,NW,310,0.0,0.0,38,0.00,,CLR,0.00,VWS V14.00,2013-03-31 06:24:00,
2013-03-30 23:29:00,49.8,25.2,29.32,NW,310,0.0,0.0,38,0.00,,CLR,0.00,VWS V14.00,2013-03-31 06:29:00,
2013-03-30 23:34:00,49.8,25.2,29.32,NW,310,0.0,0.0,38,0.00,,CLR,0.00,VWS V14.00,2013-03-31 06:34:00,
2013-03-30 23:39:00,49.6,25.1,29.32,NW,310,0.0,0.0,38,0.00,,CLR,0.00,VWS V14.00,2013-03-31 06:39:00,
2013-03-30 23:45:00,49.3,24.8,29.32,NW,310,0.0,0.0,38,0.00,,CLR,0.00,VWS V14.00,2013-03-31 06:45:00,
2013-03-30 23:51:00,48.9,24.5,29.32,NW,310,0.0,0.0,38,0.00,,CLR,0.00,VWS V14.00,2013-03-31 06:51:00,
2013-03-30 23:57:00,48.6,24.7,29.32,NW,310,0.0,0.0,39,0.00,,CLR,0.00,VWS V14.00,2013-03-31 06:57:00,